Content
SEND FEEDBACK

Daily
Averages
Monthly
Summary
Czech Republic

CHEB, CZECH REPUBLIC


Home > Europe > Czech Republic
Elevation: 1545 feet     Latitude: 50 05N     Longitude: 012 24E

WEATHER
 
SELECT A DAY
Number of Records: 84,706;   Date Range: 6/5/97 - 10/1/14
 
SHARE

PRINT THIS DATA

[ ← Previous Day ]
WEATHER ALMANAC - OCTOBER 12, 2013
[ Next Day → ]
[ °C ]   °F
Weather ElementAverageHighLow
Temperature40.3 °F46.4 °F (1:00 pm)28.4 °F (4:00 am)
Dewpoint39.1 °F44.6 °F (4:00 pm)28.4 °F (4:00 am)
Humidity95.2 %100 % (1:00 am)87 % (1:00 pm)
Barometer30.03 in30.09 in (1:00 am)30.01 in (9:30 am)
Wind Speed4.9 mph12.7 mph (10:00 am)
Weather ElementAverage
Visibility3.7 mi
Wind DirectionENE (62.5 °)

Weather ElementTotal
Precipitation---
Heating Degree Days27.6 (Base 65)
Averaged from 40 records on October 12, 2013
WEATHER CONDITIONS BREAKOUT
WIND DIRECTION BREAKOUT
WEATHER BY HOUR - OCTOBER 12, 2013
[ °C ]   °F
Local TimeTemperatureDewpointHumidityBarometerVisibilityWind DirectionWind SpeedGust SpeedPrecipitationEventsConditions
1:00 AM32.0 °F32.0 °F100 %30.09 in6.2 miESE (110°)3.5 mphFogPatches of Fog
2:00 AM32.0 °F30.2 °F93 %30.09 inVariable2.3 mphClear
3:00 AM30.2 °F30.2 °F100 %30.09 in6.2 miVariable2.3 mphFogPatches of Fog
4:00 AM28.4 °F28.4 °F100 %30.09 in0.7 miVariable1.2 mphFogScattered Clouds
5:00 AM28.4 °F28.4 °F100 %30.06 in5.0 miVariable2.3 mphFogPatches of Fog
6:00 AM30.2 °F28.4 °F93 %30.06 in0.7 miESE (120°)3.5 mphFogMostly Cloudy
6:21 AM30.2 °F28.4 °F93 %30.06 in0.2 miEast (100°)3.5 mphFogLight Freezing Fog
6:36 AM30.2 °F30.2 °F100 %30.04 in3.1 miVariable1.2 mphFogMostly Cloudy
7:00 AM32.0 °F30.2 °F93 %30.04 in5.0 miVariable2.3 mphMostly Cloudy
7:49 AM32.0 °F32.0 °F100 %30.04 in0.6 miNorth (10°)3.5 mphFogFog
8:00 AM33.8 °F32.0 °F93 %30.04 in0.4 miVariable3.5 mphFogFog
8:30 AM33.8 °F33.8 °F100 %30.04 in0.9 miEast (90°)4.6 mphMostly Cloudy
9:00 AM41.0 °F41.0 °F100 %30.04 in3.7 miENE (60°)8.1 mphFogMostly Cloudy
9:30 AM42.8 °F42.8 °F100 %30.01 in4.3 miENE (70°)9.2 mphFogPatches of Fog
10:00 AM42.8 °F42.8 °F100 %30.04 in6.2 miEast (80°)12.7 mphMostly Cloudy
10:30 AM44.6 °F42.8 °F93 %30.01 in6.2 miENE (60°)9.2 mphMostly Cloudy
11:00 AM44.6 °F42.8 °F93 %30.01 in6.2 miENE (60°)10.4 mphMostly Cloudy
11:30 AM44.6 °F42.8 °F93 %30.01 in5.6 miENE (60°)9.2 mphMostly Cloudy
12:00 PM44.6 °F42.8 °F93 %30.01 in4.3 miEast (90°)8.1 mphMostly Cloudy
12:30 PM44.6 °F42.8 °F93 %30.04 in5.6 miESE (120°)12.7 mphMostly Cloudy
1:00 PM46.4 °F42.8 °F87 %30.01 in6.2 miESE (110°)10.4 mphMostly Cloudy
1:12 PM44.6 °F42.8 °F93 %30.01 in5.0 miENE (60°)8.1 mphRainLight Rain
1:30 PM44.6 °F42.8 °F93 %30.01 in5.0 miNE (50°)8.1 mphMostly Cloudy
2:00 PM44.6 °F42.8 °F93 %30.01 in3.1 miENE (70°)8.1 mphRainLight Rain
2:30 PM46.4 °F42.8 °F87 %30.01 in5.0 miNE (50°)5.8 mphMostly Cloudy
3:00 PM46.4 °F42.8 °F87 %30.01 in5.6 miENE (60°)4.6 mphOvercast
3:30 PM46.4 °F42.8 °F87 %30.01 in4.3 miNE (40°)4.6 mphRainLight Rain
4:00 PM44.6 °F44.6 °F100 %30.01 in2.8 miNE (50°)4.6 mphRainLight Rain
4:30 PM46.4 °F44.6 °F93 %30.01 in2.5 miENE (60°)2.3 mphRainLight Rain
5:00 PM46.4 °F44.6 °F93 %30.01 in3.7 miCalmMostly Cloudy
5:30 PM46.4 °F44.6 °F93 %30.01 in3.7 miVariable1.2 mphMostly Cloudy
6:00 PM46.4 °F44.6 °F93 %30.01 in3.7 miESE (120°)3.5 mphScattered Clouds
6:30 PM46.4 °F44.6 °F93 %30.01 in3.7 miVariable1.2 mphMostly Cloudy
7:00 PM44.6 °F44.6 °F100 %30.01 in3.1 miVariable2.3 mphMostly Cloudy
7:30 PM42.8 °F41.0 °F93 %30.01 in1.9 miENE (60°)3.5 mphFogScattered Clouds
8:00 PM42.8 °F41.0 °F93 %30.01 in1.6 miSSE (160°)2.3 mphFogScattered Clouds
8:30 PM42.8 °F42.8 °F100 %30.01 in3.7 miSSE (150°)2.3 mphScattered Clouds
9:00 PM39.2 °F39.2 °F100 %30.01 in2.5 miSSW (210°)4.6 mphScattered Clouds
10:00 PM41.0 °F41.0 °F100 %30.01 in3.1 miSW (220°)4.6 mphMostly Cloudy
11:00 PM41.0 °F41.0 °F100 %30.04 in3.1 miVariable2.3 mphMostly Cloudy
Hourly data recorded from LKKV, located miles away from Cheb, Czech Republic







STORIES FROM OUR PARTNERS